CZ-6A DEB, 55871

Orbit data source: Space-Track

CZ-6A DEB, 55871 is space debris in SSO originally from a launch on Fri, 11 Nov 2022 UTC launched from the Taiyaun Space Center, China (TSC). Debris objects in space refer to the collection of defunct objects orbiting the Earth. Examples of debris include non-operational satellites, rocket bodies, and fragments generated from explosions, collisions, or faulty payload assembly.

Loading next visibility...
Identifier
55871, 2022-151ZT
Orbit
SSO
Country
Flag of CNCN / PRC
Related business
Manufacturer
SAST
Mission
Spacecraft
Bus & Motor
Unknown
Mass
Unknown
Launch date (UTC)
2022-11-11 (4 years ago)
Launch vehicle
Unknown
Launch site
Taiyaun Space Center, China (TSC)
Object type
Payload
Rocket body
Debris
Shape & HBR
Unknown shape, 0.1 m
Radar Cross Section
Medium (>0.1 m² and <1 m²)

Expand to show TLE details & history
Last TLE update: 2 days ago

TLE from 2 days ago
0 CZ-6A DEB
1 55871U 22151ZT  26171.45146029  .00001913  00000-0  87170-3 0  9995
2 55871  98.7962 186.3004 0020837 274.8652  85.0146 14.22731929174360
Epoch: 2026-06-20T10:50Z
TLE epoch observation values (Epoch: 2026-06-20T10:50:06.169Z)
Latitude
-0.00006°
Longitude
115.10881°
Altitude
817.772 km
Speed
7.445 km/s
True Right ascension
12h 25m 12s
True Declination
0° 00' 00"
Sunlit
Object was in daylight at epoch
Visualization orbit readout
Latitude
Unknown
Longitude
Unknown
Altitude
Unknown
Speed
Unknown
Apparent Right ascension
Unknown
Apparent Declination
Unknown
Sunlit
N/A
Visualization observer readout
Local Sidereal Time
21:23:46
Azimuth
Unknown
Elevation
Unknown
Doppler factor
Unknown
Orbital elements
Apogee altitude
828.272 km
Perigee altitude
798.303 km
Semi-major axis
7,191.425 km
Eccentricity
0.00208
Inclination
98.7962°
RAAN
186.3004°
Arg. of periapsis
274.8652°
True anomaly
85.25252°
Mean anomaly
85.0146°
Eccentric anomaly
85.13356°
Mean motion
3.55894 °/min
Orbital period
101.15 mins
BSTAR
0.0008717
Loading maneuver chart data...
Computing Atmospheric mass density...
Loading historical data...
Loading historical data...
Loading historical data...
Loading historical data...
Loading historical data...
Loading historical data...
Loading historical data...

Documentation

Showing up to 5 results
|